Time,TemperatureF,DewpointF,PressureIn,WindDirection,WindDirectionDegrees,WindSpeedMPH,WindSpeedGustMPH,Humidity,HourlyPrecipIn,Conditions,Clouds,dailyrainin,SolarRadiationWatts/m^2,SoftwareType,DateUTC
2013-10-09 00:02:00,56.0,52.0,-100.00,NE,35,3.0,6.0,87,0.00,,,0.00,0.000000,,2013-10-09 04:02:00,
2013-10-09 00:24:00,56.0,52.0,-100.00,NE,35,3.0,6.0,87,0.00,,,0.00,0.000000,,2013-10-09 04:24:00,
2013-10-09 00:34:00,56.0,52.0,-100.00,NE,35,3.0,6.0,87,0.00,,,0.00,0.000000,,2013-10-09 04:34:00,
2013-10-09 00:44:00,56.0,52.0,-100.00,NE,35,3.0,6.0,87,0.00,,,0.00,0.000000,,2013-10-09 04:44:00,
2013-10-09 00:54:00,56.0,52.0,-100.00,NE,35,3.0,6.0,87,0.00,,,0.00,0.000000,,2013-10-09 04:54:00,
2013-10-09 01:02:00,57.0,52.0,-100.00,NE,50,2.0,5.0,84,0.00,,,0.00,0.000000,,2013-10-09 05:02:00,
2013-10-09 01:42:00,57.0,52.0,-100.00,NE,50,2.0,5.0,84,0.00,,,0.00,0.000000,,2013-10-09 05:42:00,
2013-10-09 01:52:00,57.0,52.0,-100.00,NE,50,2.0,5.0,84,0.00,,,0.00,0.000000,,2013-10-09 05:52:00,
2013-10-09 02:02:00,56.0,53.0,-100.00,ENE,70,1.0,4.0,90,0.00,,,0.00,0.000000,,2013-10-09 06:02:00,
2013-10-09 02:22:00,56.0,53.0,-100.00,ENE,70,1.0,4.0,90,0.00,,,0.00,0.000000,,2013-10-09 06:22:00,
2013-10-09 02:33:00,56.0,53.0,-100.00,ENE,70,1.0,4.0,90,0.00,,,0.00,0.000000,,2013-10-09 06:33:00,
2013-10-09 02:42:00,56.0,53.0,-100.00,ENE,70,1.0,4.0,90,0.00,,,0.00,0.000000,,2013-10-09 06:42:00,
2013-10-09 02:52:00,56.0,53.0,-100.00,ENE,70,1.0,4.0,90,0.00,,,0.00,0.000000,,2013-10-09 06:52:00,
2013-10-09 03:02:00,57.0,53.0,-100.00,NE,37,3.0,6.0,85,0.00,,,0.00,0.000000,,2013-10-09 07:02:00,
2013-10-09 03:22:00,57.0,53.0,-100.00,NE,37,3.0,6.0,85,0.00,,,0.00,0.000000,,2013-10-09 07:22:00,
2013-10-09 03:32:00,57.0,53.0,-100.00,NE,37,3.0,6.0,85,0.00,,,0.00,0.000000,,2013-10-09 07:32:00,
2013-10-09 03:42:00,57.0,53.0,-100.00,NE,37,3.0,6.0,85,0.00,,,0.00,0.000000,,2013-10-09 07:42:00,
2013-10-09 03:52:00,57.0,53.0,-100.00,NE,37,3.0,6.0,85,0.00,,,0.00,0.000000,,2013-10-09 07:52:00,
2013-10-09 04:02:00,57.0,51.0,-100.00,ENE,63,4.0,6.0,79,0.00,,,0.00,0.000000,,2013-10-09 08:02:00,
2013-10-09 04:23:00,57.0,51.0,-100.00,ENE,63,4.0,6.0,79,0.00,,,0.00,0.000000,,2013-10-09 08:23:00,
2013-10-09 04:32:00,57.0,51.0,-100.00,ENE,63,4.0,6.0,79,0.00,,,0.00,0.000000,,2013-10-09 08:32:00,
2013-10-09 04:42:00,57.0,51.0,-100.00,ENE,63,4.0,6.0,79,0.00,,,0.00,0.000000,,2013-10-09 08:42:00,
2013-10-09 04:53:00,57.0,51.0,-100.00,ENE,63,4.0,6.0,79,0.00,,,0.00,0.000000,,2013-10-09 08:53:00,
2013-10-09 05:02:00,56.0,49.0,-100.00,NE,38,3.0,7.0,78,0.00,,,0.00,0.000000,,2013-10-09 09:02:00,
2013-10-09 05:22:00,56.0,49.0,-100.00,NE,38,3.0,7.0,78,0.00,,,0.00,0.000000,,2013-10-09 09:22:00,
2013-10-09 05:33:00,56.0,49.0,-100.00,NE,38,3.0,7.0,78,0.00,,,0.00,0.000000,,2013-10-09 09:33:00,
2013-10-09 05:43:00,56.0,49.0,-100.00,NE,38,3.0,7.0,78,0.00,,,0.00,0.000000,,2013-10-09 09:43:00,
2013-10-09 05:53:00,56.0,49.0,-100.00,NE,38,3.0,7.0,78,0.00,,,0.00,0.000000,,2013-10-09 09:53:00,
2013-10-09 06:02:00,57.0,46.0,-100.00,NE,53,5.0,11.0,67,0.00,,,0.00,0.000000,,2013-10-09 10:02:00,
2013-10-09 06:23:00,57.0,46.0,-100.00,NE,53,5.0,11.0,67,0.00,,,0.00,0.000000,,2013-10-09 10:23:00,
2013-10-09 06:33:00,57.0,46.0,-100.00,NE,53,5.0,11.0,67,0.00,,,0.00,0.000000,,2013-10-09 10:33:00,
2013-10-09 06:43:00,57.0,46.0,-100.00,NE,53,5.0,11.0,67,0.00,,,0.00,0.000000,,2013-10-09 10:43:00,
2013-10-09 06:53:00,57.0,46.0,-100.00,NE,53,5.0,11.0,67,0.00,,,0.00,0.000000,,2013-10-09 10:53:00,
2013-10-09 07:22:00,56.0,46.0,-100.00,NE,38,4.0,10.0,69,0.00,,,0.00,0.000000,,2013-10-09 11:22:00,
2013-10-09 07:33:00,56.0,46.0,-100.00,NE,38,4.0,10.0,69,0.00,,,0.00,0.000000,,2013-10-09 11:33:00,
2013-10-09 07:42:00,56.0,46.0,-100.00,NE,38,4.0,10.0,69,0.00,,,0.00,0.000000,,2013-10-09 11:42:00,
2013-10-09 07:52:00,56.0,46.0,-100.00,NE,38,4.0,10.0,69,0.00,,,0.00,0.000000,,2013-10-09 11:52:00,
2013-10-09 08:01:00,56.0,46.0,-100.00,NE,38,4.0,10.0,69,0.00,,,0.00,0.000000,,2013-10-09 12:01:00,
2013-10-09 08:02:00,56.0,47.0,-100.00,NE,41,3.0,6.0,72,0.00,,,0.00,5.000000,,2013-10-09 12:02:00,
2013-10-09 08:42:00,56.0,47.0,-100.00,NE,41,3.0,6.0,72,0.00,,,0.00,5.000000,,2013-10-09 12:42:00,
2013-10-09 08:52:00,56.0,47.0,-100.00,NE,41,3.0,6.0,72,0.00,,,0.00,5.000000,,2013-10-09 12:52:00,
2013-10-09 09:02:00,59.0,47.0,-100.00,NE,43,5.0,10.0,65,0.00,,,0.00,160.000000,,2013-10-09 13:02:00,
2013-10-09 09:42:00,59.0,47.0,-100.00,NE,43,5.0,10.0,65,0.00,,,0.00,160.000000,,2013-10-09 13:42:00,
2013-10-09 09:52:00,59.0,47.0,-100.00,NE,43,5.0,10.0,65,0.00,,,0.00,160.000000,,2013-10-09 13:52:00,
2013-10-09 10:02:00,62.0,48.0,-100.00,NE,53,6.0,14.0,60,0.00,,,0.00,371.000000,,2013-10-09 14:02:00,
2013-10-09 10:22:00,62.0,48.0,-100.00,NE,53,6.0,14.0,60,0.00,,,0.00,371.000000,,2013-10-09 14:22:00,
2013-10-09 10:32:00,62.0,48.0,-100.00,NE,53,6.0,14.0,60,0.00,,,0.00,371.000000,,2013-10-09 14:32:00,
2013-10-09 10:42:00,62.0,48.0,-100.00,NE,53,6.0,14.0,60,0.00,,,0.00,371.000000,,2013-10-09 14:42:00,
2013-10-09 10:52:00,62.0,48.0,-100.00,NE,53,6.0,14.0,60,0.00,,,0.00,371.000000,,2013-10-09 14:52:00,
2013-10-09 11:02:00,65.0,46.0,-100.00,NE,46,7.0,14.0,51,0.00,,,0.00,549.000000,,2013-10-09 15:02:00,
2013-10-09 11:22:00,65.0,46.0,-100.00,NE,46,7.0,14.0,51,0.00,,,0.00,549.000000,,2013-10-09 15:22:00,
2013-10-09 11:33:00,65.0,46.0,-100.00,NE,46,7.0,14.0,51,0.00,,,0.00,549.000000,,2013-10-09 15:33:00,
2013-10-09 11:43:00,65.0,46.0,-100.00,NE,46,7.0,14.0,51,0.00,,,0.00,549.000000,,2013-10-09 15:43:00,
2013-10-09 11:53:00,65.0,46.0,-100.00,NE,46,7.0,14.0,51,0.00,,,0.00,549.000000,,2013-10-09 15:53:00,
2013-10-09 12:02:00,69.0,47.0,-100.00,ENE,67,6.0,14.0,45,0.00,,,0.00,719.000000,,2013-10-09 16:02:00,
2013-10-09 12:24:00,69.0,47.0,-100.00,ENE,67,6.0,14.0,45,0.00,,,0.00,719.000000,,2013-10-09 16:24:00,
2013-10-09 12:33:00,69.0,47.0,-100.00,ENE,67,6.0,14.0,45,0.00,,,0.00,719.000000,,2013-10-09 16:33:00,
2013-10-09 12:42:00,69.0,47.0,-100.00,ENE,67,6.0,14.0,45,0.00,,,0.00,719.000000,,2013-10-09 16:42:00,
2013-10-09 12:53:00,69.0,47.0,-100.00,ENE,67,6.0,14.0,45,0.00,,,0.00,719.000000,,2013-10-09 16:53:00,
2013-10-09 13:02:00,70.0,46.0,-100.00,ENE,60,7.0,12.0,43,0.00,,,0.00,812.000000,,2013-10-09 17:02:00,
2013-10-09 13:23:00,70.0,46.0,-100.00,ENE,60,7.0,12.0,43,0.00,,,0.00,812.000000,,2013-10-09 17:23:00,
2013-10-09 13:33:00,70.0,46.0,-100.00,ENE,60,7.0,12.0,43,0.00,,,0.00,812.000000,,2013-10-09 17:33:00,
2013-10-09 13:42:00,70.0,46.0,-100.00,ENE,60,7.0,12.0,43,0.00,,,0.00,812.000000,,2013-10-09 17:42:00,
2013-10-09 13:52:00,70.0,46.0,-100.00,ENE,60,7.0,12.0,43,0.00,,,0.00,812.000000,,2013-10-09 17:52:00,
2013-10-09 14:02:00,74.0,45.0,-100.00,NNE,27,4.0,11.0,36,0.00,,,0.00,838.000000,,2013-10-09 18:02:00,
2013-10-09 14:22:00,74.0,45.0,-100.00,NNE,27,4.0,11.0,36,0.00,,,0.00,838.000000,,2013-10-09 18:22:00,
2013-10-09 14:32:00,74.0,45.0,-100.00,NNE,27,4.0,11.0,36,0.00,,,0.00,838.000000,,2013-10-09 18:32:00,
2013-10-09 14:42:00,74.0,45.0,-100.00,NNE,27,4.0,11.0,36,0.00,,,0.00,838.000000,,2013-10-09 18:42:00,
2013-10-09 14:52:00,74.0,45.0,-100.00,NNE,27,4.0,11.0,36,0.00,,,0.00,838.000000,,2013-10-09 18:52:00,
2013-10-09 15:02:00,74.0,47.0,-100.00,NE,41,5.0,12.0,39,0.00,,,0.00,791.000000,,2013-10-09 19:02:00,
2013-10-09 15:22:00,74.0,47.0,-100.00,NE,41,5.0,12.0,39,0.00,,,0.00,791.000000,,2013-10-09 19:22:00,
2013-10-09 15:32:00,74.0,47.0,-100.00,NE,41,5.0,12.0,39,0.00,,,0.00,791.000000,,2013-10-09 19:32:00,
2013-10-09 15:42:00,74.0,47.0,-100.00,NE,41,5.0,12.0,39,0.00,,,0.00,791.000000,,2013-10-09 19:42:00,
2013-10-09 15:53:00,74.0,47.0,-100.00,NE,41,5.0,12.0,39,0.00,,,0.00,791.000000,,2013-10-09 19:53:00,
2013-10-09 16:02:00,75.0,46.0,-100.00,NNE,20,5.0,13.0,36,0.00,,,0.00,677.000000,,2013-10-09 20:02:00,
2013-10-09 16:22:00,75.0,46.0,-100.00,NNE,20,5.0,13.0,36,0.00,,,0.00,677.000000,,2013-10-09 20:22:00,
2013-10-09 16:32:00,75.0,46.0,-100.00,NNE,20,5.0,13.0,36,0.00,,,0.00,677.000000,,2013-10-09 20:32:00,
2013-10-09 16:43:00,75.0,46.0,-100.00,NNE,20,5.0,13.0,36,0.00,,,0.00,677.000000,,2013-10-09 20:43:00,
2013-10-09 16:52:00,75.0,46.0,-100.00,NNE,20,5.0,13.0,36,0.00,,,0.00,677.000000,,2013-10-09 20:52:00,
2013-10-09 17:02:00,75.0,48.0,-100.00,North,10,4.0,10.0,39,0.00,,,0.00,504.000000,,2013-10-09 21:02:00,
2013-10-09 17:23:00,75.0,48.0,-100.00,North,10,4.0,10.0,39,0.00,,,0.00,504.000000,,2013-10-09 21:23:00,
2013-10-09 17:34:00,75.0,48.0,-100.00,North,10,4.0,10.0,39,0.00,,,0.00,504.000000,,2013-10-09 21:34:00,
2013-10-09 17:44:00,75.0,48.0,-100.00,North,10,4.0,10.0,39,0.00,,,0.00,504.000000,,2013-10-09 21:44:00,
2013-10-09 17:54:00,75.0,48.0,-100.00,North,10,4.0,10.0,39,0.00,,,0.00,504.000000,,2013-10-09 21:54:00,
2013-10-09 18:02:00,74.0,48.0,-100.00,North,2,3.0,10.0,40,0.00,,,0.00,306.000000,,2013-10-09 22:02:00,
2013-10-09 18:43:00,74.0,48.0,-100.00,North,2,3.0,10.0,40,0.00,,,0.00,306.000000,,2013-10-09 22:43:00,
2013-10-09 18:53:00,74.0,48.0,-100.00,North,2,3.0,10.0,40,0.00,,,0.00,306.000000,,2013-10-09 22:53:00,
2013-10-09 19:02:00,68.0,54.0,-100.00,NNW,341,2.0,5.0,60,0.00,,,0.00,90.000000,,2013-10-09 23:02:00,
2013-10-09 19:43:00,68.0,54.0,-100.00,NNW,341,2.0,5.0,60,0.00,,,0.00,90.000000,,2013-10-09 23:43:00,
2013-10-09 19:53:00,68.0,54.0,-100.00,NNW,341,2.0,5.0,60,0.00,,,0.00,90.000000,,2013-10-09 23:53:00,
2013-10-09 20:02:00,61.0,53.0,-100.00,NW,326,2.0,3.0,74,0.00,,,0.00,1.000000,,2013-10-10 00:02:00,
2013-10-09 20:22:00,61.0,53.0,-100.00,NW,326,2.0,3.0,74,0.00,,,0.00,1.000000,,2013-10-10 00:22:00,
2013-10-09 20:32:00,61.0,53.0,-100.00,NW,326,2.0,3.0,74,0.00,,,0.00,1.000000,,2013-10-10 00:32:00,
2013-10-09 20:42:00,61.0,53.0,-100.00,NW,326,2.0,3.0,74,0.00,,,0.00,1.000000,,2013-10-10 00:42:00,
2013-10-09 20:52:00,61.0,53.0,-100.00,NW,326,2.0,3.0,74,0.00,,,0.00,1.000000,,2013-10-10 00:52:00,
2013-10-09 21:02:00,59.0,52.0,-100.00,NW,317,1.0,3.0,78,0.00,,,0.00,0.000000,,2013-10-10 01:02:00,
2013-10-09 21:42:00,59.0,52.0,-100.00,NW,317,1.0,3.0,78,0.00,,,0.00,0.000000,,2013-10-10 01:42:00,
2013-10-09 21:52:00,59.0,52.0,-100.00,NW,317,1.0,3.0,78,0.00,,,0.00,0.000000,,2013-10-10 01:52:00,
2013-10-09 22:02:00,58.0,52.0,-100.00,North,352,2.0,4.0,79,0.00,,,0.00,0.000000,,2013-10-10 02:02:00,
2013-10-09 22:52:00,58.0,52.0,-100.00,North,352,2.0,4.0,79,0.00,,,0.00,0.000000,,2013-10-10 02:52:00,
2013-10-09 23:02:00,57.0,52.0,-100.00,NNW,341,1.0,4.0,83,0.00,,,0.00,0.000000,,2013-10-10 03:02:00,
2013-10-09 23:44:00,57.0,52.0,-100.00,NNW,341,1.0,4.0,83,0.00,,,0.00,0.000000,,2013-10-10 03:44:00,
2013-10-09 23:55:00,57.0,52.0,-100.00,NNW,341,1.0,4.0,83,0.00,,,0.00,0.000000,,2013-10-10 03:55:00,